GFSFLT1_prec_precacc24_147.txt.gz
Total_Precipitation_Accumulation
0.00 0.00 0.00 0.00 0.00 0.00 0.00 0.00 0.00 0.00 0.02 0.07 0.16 0.18 0.16 0.29 0.29 0.34 0.33 0.31 0.35 0.41 0.31 0.17 0.06 0.04 0.02 0.01 0.01 0.02 0.01 0.01
0.00 0.00 0.00 0.00 0.00 0.00 0.00 0.00 0.00 0.00 0.02 0.09 0.10 0.09 0.12 0.23 0.15 0.20 0.33 0.47 0.61 0.61 0.42 0.39 0.26 0.16 0.07 0.02 0.08 0.10 0.04 0.03
0.00 0.00 0.00 0.00 0.00 0.00 0.00 0.00 0.00 0.00 0.00 0.02 0.08 0.12 0.18 0.22 0.18 0.25 0.23 0.37 0.46 0.51 0.45 0.47 0.48 0.48 0.30 0.13 0.09 0.09 0.09 0.07
0.00 0.00 0.00 0.00 0.00 0.00 0.00 0.00 0.00 0.00 0.00 0.02 0.14 0.24 0.33 0.36 0.26 0.19 0.21 0.35 0.49 0.44 0.37 0.41 0.51 0.85 0.90 0.32 0.11 0.12 0.10 0.09
0.00 0.00 0.00 0.00 0.00 0.00 0.00 0.00 0.00 0.00 0.00 0.01 0.12 0.14 0.13 0.10 0.08 0.11 0.16 0.28 0.47 0.51 0.59 0.66 0.67 0.61 0.70 0.75 0.38 0.19 0.25 0.16
0.00 0.00 0.00 0.00 0.00 0.00 0.00 0.00 0.00 0.00 0.00 0.00 0.16 0.23 0.18 0.27 0.49 0.66 0.75 0.73 0.78 0.66 0.79 1.05 1.18 1.31 1.01 1.11 1.07 0.61 0.43 0.45
0.01 0.00 0.00 0.00 0.01 0.01 0.01 0.00 0.00 0.02 0.10 0.09 0.15 0.22 0.29 0.36 0.42 0.57 0.72 0.88 1.02 1.03 1.08 1.27 1.73 1.80 1.70 1.38 1.24 1.09 0.58 0.45
0.06 0.03 0.02 0.01 0.01 0.04 0.08 0.04 0.01 0.02 0.12 0.26 0.27 0.33 0.44 0.37 0.29 0.36 0.41 0.52 0.41 0.37 0.48 0.55 0.78 1.20 1.20 1.35 1.28 0.99 0.87 0.51
0.12 0.10 0.08 0.09 0.07 0.03 0.04 0.06 0.09 0.08 0.16 0.33 0.46 0.44 0.66 0.49 0.41 0.46 0.34 0.33 0.36 0.50 0.54 0.62 0.62 0.80 1.01 0.76 0.74 0.98 0.93 0.66
0.29 0.25 0.23 0.21 0.21 0.14 0.12 0.12 0.17 0.21 0.22 0.33 0.55 0.73 0.79 0.78 0.69 1.05 1.02 0.64 0.48 0.53 0.89 1.10 1.02 1.15 1.04 1.27 0.95 0.54 0.85 0.83
0.42 0.52 0.50 0.35 0.35 0.26 0.21 0.23 0.24 0.26 0.31 0.39 0.54 0.74 0.81 0.79 0.82 0.79 1.06 1.07 0.79 0.69 0.82 0.98 1.36 1.18 1.34 1.18 1.25 0.75 0.41 0.61
0.61 0.95 0.94 0.66 0.60 0.48 0.40 0.39 0.38 0.28 0.28 0.34 0.51 0.77 0.71 0.82 0.88 0.79 1.06 1.30 1.10 0.85 0.68 0.91 0.92 1.02 1.12 0.87 0.88 0.82 0.66 0.47
0.60 0.56 0.77 1.11 1.05 0.70 0.52 0.43 0.51 0.49 0.45 0.42 0.50 0.68 0.85 0.83 0.80 0.73 0.49 1.30 1.57 1.46 1.34 1.03 1.44 1.28 1.08 1.01 0.87 0.69 0.84 0.73
1.07 0.97 0.76 0.58 0.87 1.00 0.71 0.53 0.70 0.73 0.58 0.57 0.53 0.62 0.85 0.92 0.94 0.97 0.96 0.87 1.39 1.42 1.62 1.68 1.26 1.53 1.09 0.81 0.80 0.92 0.67 0.92
0.86 0.87 1.14 1.11 0.66 0.78 0.80 0.66 1.02 0.94 0.72 0.69 0.70 0.76 0.72 0.83 0.94 1.16 1.40 1.44 1.36 1.34 1.45 1.42 1.16 0.87 1.09 0.93 0.78 0.63 0.71 0.51
0.66 0.73 0.55 0.68 0.81 0.66 0.54 0.61 0.53 0.71 0.71 0.55 0.48 0.58 0.79 0.62 0.57 0.74 1.13 1.08 1.11 1.31 1.35 1.35 1.35 0.93 0.62 0.75 0.89 0.66 0.62 0.66
0.32 0.31 0.24 0.12 0.12 0.20 0.16 0.24 0.26 0.22 0.30 0.24 0.32 0.27 0.33 0.38 0.43 0.41 0.45 0.62 0.75 0.81 0.97 1.26 1.39 1.46 1.04 0.66 0.61 0.70 0.67 0.59
0.14 0.06 0.04 0.05 0.02 0.02 0.01 0.02 0.02 0.02 0.05 0.08 0.06 0.05 0.06 0.05 0.09 0.12 0.15 0.23 0.35 0.51 0.65 0.71 0.79 0.99 1.20 1.01 0.78 0.64 0.63 0.65
0.04 0.05 0.03 0.02 0.01 0.01 0.00 0.01 0.00 0.00 0.00 0.00 0.02 0.02 0.01 0.01 0.01 0.00 0.00 0.01 0.02 0.07 0.15 0.23 0.31 0.37 0.48 0.65 0.80 0.78 0.70 0.63

GFSFLT1_prec_precacc24_150.txt.gz
Total_Precipitation_Accumulation
0.00 0.00 0.00 0.00 0.00 0.00 0.00 0.00 0.00 0.00 0.02 0.07 0.16 0.18 0.16 0.29 0.29 0.34 0.33 0.31 0.35 0.42 0.33 0.21 0.23 0.47 0.45 0.18 0.06 0.04 0.02 0.01
0.00 0.00 0.00 0.00 0.00 0.00 0.00 0.00 0.00 0.00 0.02 0.09 0.10 0.08 0.12 0.23 0.15 0.20 0.33 0.47 0.61 0.61 0.43 0.42 0.34 0.33 0.42 0.57 0.40 0.23 0.12 0.09
0.00 0.00 0.00 0.00 0.00 0.00 0.00 0.00 0.00 0.00 0.00 0.02 0.08 0.12 0.18 0.22 0.18 0.25 0.23 0.37 0.45 0.48 0.44 0.49 0.55 0.59 0.47 0.38 0.36 0.21 0.20 0.20
0.00 0.00 0.00 0.00 0.00 0.00 0.00 0.00 0.00 0.00 0.00 0.02 0.14 0.23 0.31 0.35 0.25 0.19 0.18 0.33 0.45 0.41 0.34 0.40 0.53 0.91 1.11 0.77 0.62 0.45 0.25 0.21
0.00 0.00 0.00 0.00 0.00 0.00 0.00 0.00 0.00 0.00 0.00 0.01 0.11 0.12 0.11 0.08 0.07 0.06 0.06 0.21 0.42 0.50 0.57 0.65 0.64 0.61 0.79 1.08 0.87 0.69 0.73 0.47
0.00 0.00 0.00 0.00 0.00 0.00 0.00 0.00 0.00 0.00 0.00 0.00 0.10 0.16 0.13 0.16 0.26 0.38 0.46 0.53 0.69 0.62 0.78 1.03 1.16 1.29 1.01 1.18 1.39 1.41 1.17 0.97
0.01 0.00 0.00 0.00 0.01 0.01 0.01 0.00 0.00 0.01 0.08 0.06 0.09 0.16 0.25 0.30 0.29 0.32 0.45 0.66 0.91 0.98 1.05 1.24 1.71 1.78 1.68 1.37 1.26 1.57 1.74 1.56
0.06 0.03 0.02 0.01 0.00 0.03 0.08 0.03 0.01 0.02 0.11 0.23 0.24 0.30 0.41 0.32 0.24 0.31 0.31 0.42 0.34 0.36 0.41 0.51 0.73 1.14 1.17 1.32 1.25 0.98 0.90 0.75
0.12 0.10 0.08 0.08 0.06 0.03 0.02 0.04 0.07 0.07 0.14 0.32 0.45 0.42 0.65 0.48 0.40 0.46 0.33 0.32 0.35 0.49 0.53 0.61 0.60 0.76 0.96 0.73 0.73 0.97 0.92 0.67
0.28 0.23 0.21 0.19 0.19 0.13 0.11 0.12 0.16 0.20 0.22 0.33 0.55 0.74 0.79 0.78 0.69 1.06 1.02 0.64 0.49 0.54 0.89 1.10 1.01 1.14 1.02 1.25 0.94 0.53 0.85 0.82
0.37 0.48 0.47 0.32 0.34 0.25 0.21 0.23 0.24 0.26 0.31 0.39 0.54 0.74 0.81 0.79 0.82 0.80 1.06 1.08 0.80 0.70 0.83 0.98 1.36 1.18 1.34 1.17 1.25 0.75 0.40 0.60
0.55 0.91 0.92 0.64 0.58 0.47 0.39 0.39 0.38 0.28 0.28 0.34 0.51 0.77 0.71 0.82 0.88 0.80 1.06 1.30 1.10 0.85 0.68 0.91 0.92 1.02 1.12 0.86 0.88 0.82 0.65 0.45
0.54 0.51 0.76 1.10 1.04 0.69 0.51 0.43 0.51 0.49 0.45 0.42 0.50 0.68 0.85 0.83 0.80 0.74 0.49 1.31 1.58 1.46 1.34 1.03 1.45 1.28 1.09 1.01 0.86 0.69 0.83 0.72
1.04 0.96 0.76 0.58 0.87 1.00 0.70 0.53 0.70 0.73 0.58 0.57 0.53 0.62 0.85 0.92 0.94 0.97 0.97 0.88 1.39 1.42 1.62 1.69 1.27 1.55 1.11 0.83 0.81 0.92 0.67 0.91
0.79 0.83 1.13 1.11 0.66 0.78 0.80 0.66 1.02 0.94 0.72 0.69 0.70 0.76 0.72 0.83 0.94 1.16 1.41 1.45 1.38 1.36 1.47 1.46 1.25 0.94 1.15 0.99 0.83 0.66 0.72 0.51
0.46 0.50 0.43 0.63 0.79 0.66 0.54 0.61 0.53 0.71 0.71 0.55 0.48 0.58 0.79 0.62 0.57 0.74 1.13 1.09 1.13 1.34 1.38 1.42 1.54 1.18 0.86 0.92 0.97 0.72 0.68 0.68
0.23 0.22 0.19 0.10 0.12 0.20 0.15 0.24 0.26 0.22 0.30 0.24 0.32 0.27 0.33 0.38 0.43 0.41 0.46 0.63 0.76 0.84 1.03 1.40 1.64 1.76 1.38 0.93 0.78 0.81 0.74 0.62
0.11 0.05 0.04 0.04 0.02 0.02 0.01 0.02 0.02 0.02 0.05 0.08 0.06 0.05 0.06 0.05 0.09 0.12 0.15 0.23 0.35 0.51 0.66 0.76 0.97 1.27 1.52 1.35 1.06 0.85 0.76 0.73
0.03 0.05 0.03 0.01 0.01 0.01 0.00 0.01 0.00 0.00 0.00 0.00 0.02 0.02 0.01 0.01 0.01 0.00 0.00 0.01 0.02 0.06 0.14 0.23 0.32 0.44 0.66 0.86 1.03 1.03 0.93 0.80

GFSFLT1_prec_precacc24_153.txt.gz
Total_Precipitation_Accumulation
0.00 0.00 0.00 0.00 0.00 0.00 0.00 0.00 0.00 0.00 0.02 0.07 0.16 0.18 0.16 0.29 0.29 0.34 0.33 0.31 0.35 0.42 0.33 0.21 0.23 0.49 0.56 0.50 0.24 0.16 0.11 0.10
0.00 0.00 0.00 0.00 0.00 0.00 0.00 0.00 0.00 0.00 0.02 0.08 0.10 0.08 0.12 0.23 0.15 0.20 0.33 0.47 0.61 0.61 0.43 0.42 0.34 0.34 0.46 0.84 0.92 0.91 0.61 0.29
0.00 0.00 0.00 0.00 0.00 0.00 0.00 0.00 0.00 0.00 0.00 0.02 0.07 0.11 0.18 0.22 0.18 0.25 0.23 0.37 0.45 0.48 0.45 0.49 0.55 0.60 0.48 0.41 0.52 0.47 0.40 0.31
0.00 0.00 0.00 0.00 0.00 0.00 0.00 0.00 0.00 0.00 0.00 0.02 0.14 0.22 0.31 0.35 0.25 0.19 0.18 0.33 0.45 0.41 0.34 0.39 0.53 0.92 1.11 0.78 0.67 0.70 0.57 0.43
0.00 0.00 0.00 0.00 0.00 0.00 0.00 0.00 0.00 0.00 0.00 0.01 0.11 0.12 0.11 0.08 0.07 0.05 0.05 0.15 0.31 0.37 0.47 0.56 0.59 0.56 0.79 1.09 0.90 0.76 0.85 0.78
0.00 0.00 0.00 0.00 0.00 0.00 0.00 0.00 0.00 0.00 0.00 0.00 0.10 0.15 0.12 0.15 0.23 0.29 0.34 0.28 0.29 0.26 0.44 0.73 0.95 1.16 0.96 1.18 1.40 1.43 1.21 1.07
0.01 0.00 0.00 0.00 0.01 0.01 0.01 0.00 0.00 0.01 0.08 0.06 0.08 0.14 0.22 0.25 0.24 0.27 0.35 0.44 0.36 0.32 0.35 0.60 1.25 1.64 1.58 1.26 1.13 1.51 1.73 1.57
0.06 0.03 0.02 0.01 0.00 0.03 0.08 0.03 0.01 0.02 0.11 0.23 0.23 0.28 0.38 0.28 0.19 0.27 0.26 0.38 0.30 0.29 0.31 0.39 0.62 1.02 1.07 1.22 1.18 0.94 0.85 0.75
0.12 0.10 0.08 0.08 0.05 0.03 0.02 0.04 0.07 0.06 0.14 0.31 0.43 0.40 0.62 0.46 0.36 0.45 0.32 0.31 0.35 0.48 0.52 0.57 0.56 0.71 0.90 0.66 0.66 0.93 0.88 0.65
0.22 0.18 0.18 0.17 0.18 0.13 0.11 0.11 0.15 0.20 0.21 0.32 0.54 0.72 0.78 0.77 0.68 1.06 1.02 0.64 0.50 0.54 0.89 1.10 1.00 1.12 0.99 1.22 0.93 0.51 0.83 0.80
0.31 0.43 0.43 0.30 0.33 0.24 0.20 0.21 0.23 0.25 0.31 0.39 0.54 0.74 0.81 0.79 0.83 0.80 1.07 1.08 0.80 0.71 0.83 0.98 1.36 1.18 1.33 1.16 1.24 0.74 0.40 0.60
0.50 0.88 0.90 0.63 0.57 0.46 0.38 0.38 0.37 0.28 0.27 0.34 0.51 0.77 0.71 0.82 0.88 0.80 1.06 1.31 1.10 0.86 0.69 0.92 0.92 1.01 1.11 0.85 0.87 0.81 0.64 0.45
0.48 0.47 0.73 1.08 1.02 0.67 0.50 0.43 0.51 0.49 0.45 0.42 0.50 0.68 0.85 0.83 0.80 0.74 0.50 1.31 1.58 1.47 1.34 1.03 1.45 1.28 1.08 1.00 0.85 0.68 0.82 0.71
0.67 0.63 0.52 0.53 0.82 0.95 0.67 0.50 0.68 0.72 0.58 0.57 0.53 0.62 0.85 0.92 0.94 0.97 0.97 0.88 1.39 1.42 1.62 1.69 1.28 1.57 1.11 0.83 0.80 0.91 0.66 0.91
0.56 0.60 0.78 0.86 0.61 0.76 0.77 0.64 0.97 0.88 0.70 0.68 0.70 0.76 0.72 0.83 0.94 1.16 1.41 1.45 1.38 1.36 1.47 1.47 1.25 0.94 1.15 0.99 0.82 0.66 0.71 0.51
0.31 0.31 0.33 0.59 0.75 0.65 0.54 0.60 0.52 0.70 0.70 0.55 0.48 0.58 0.79 0.62 0.57 0.74 1.13 1.09 1.13 1.34 1.38 1.42 1.53 1.18 0.88 0.95 0.99 0.75 0.72 0.70
0.08 0.09 0.08 0.07 0.11 0.19 0.15 0.24 0.26 0.22 0.30 0.24 0.32 0.27 0.33 0.38 0.43 0.41 0.46 0.63 0.76 0.84 1.03 1.40 1.63 1.76 1.37 0.97 0.85 0.91 0.81 0.71
0.01 0.01 0.01 0.01 0.01 0.01 0.01 0.02 0.02 0.02 0.05 0.08 0.06 0.05 0.06 0.05 0.09 0.12 0.15 0.23 0.35 0.51 0.66 0.76 0.96 1.27 1.51 1.39 1.16 0.95 0.86 0.85
0.00 0.01 0.01 0.01 0.01 0.01 0.00 0.01 0.00 0.00 0.00 0.00 0.02 0.02 0.01 0.01 0.01 0.00 0.00 0.01 0.02 0.06 0.14 0.23 0.31 0.43 0.62 0.86 1.07 1.09 1.09 0.96

GFSFLT1_prec_precacc24_156.txt.gz
Total_Precipitation_Accumulation
0.00 0.00 0.00 0.00 0.00 0.00 0.00 0.00 0.00 0.00 0.02 0.07 0.16 0.18 0.16 0.29 0.29 0.34 0.33 0.31 0.35 0.42 0.33 0.21 0.23 0.49 0.55 0.50 0.24 0.20 0.16 0.14
0.00 0.00 0.00 0.00 0.00 0.00 0.00 0.00 0.00 0.00 0.02 0.08 0.10 0.08 0.12 0.23 0.15 0.20 0.33 0.47 0.61 0.61 0.43 0.42 0.34 0.34 0.47 0.84 0.92 0.93 0.65 0.33
0.00 0.00 0.00 0.00 0.00 0.00 0.00 0.00 0.00 0.00 0.00 0.02 0.07 0.11 0.18 0.22 0.18 0.25 0.23 0.37 0.45 0.48 0.45 0.49 0.55 0.60 0.48 0.42 0.52 0.48 0.44 0.38
0.00 0.00 0.00 0.00 0.00 0.00 0.00 0.00 0.00 0.00 0.00 0.02 0.14 0.22 0.31 0.35 0.25 0.19 0.18 0.33 0.45 0.41 0.34 0.39 0.53 0.92 1.12 0.79 0.67 0.70 0.59 0.48
0.00 0.00 0.00 0.00 0.00 0.00 0.00 0.00 0.00 0.00 0.00 0.01 0.11 0.12 0.11 0.08 0.07 0.05 0.05 0.15 0.31 0.37 0.47 0.56 0.59 0.56 0.80 1.09 0.90 0.77 0.84 0.79
0.00 0.00 0.00 0.00 0.00 0.00 0.00 0.00 0.00 0.00 0.00 0.00 0.10 0.15 0.12 0.15 0.23 0.28 0.32 0.28 0.29 0.26 0.42 0.69 0.79 1.02 0.88 1.03 1.24 1.36 1.17 1.03
0.01 0.00 0.00 0.00 0.01 0.01 0.01 0.00 0.00 0.00 0.02 0.05 0.07 0.13 0.18 0.22 0.22 0.25 0.32 0.38 0.33 0.25 0.22 0.46 0.91 1.09 1.25 1.08 1.01 1.37 1.63 1.50
0.05 0.02 0.01 0.01 0.00 0.03 0.07 0.03 0.01 0.01 0.09 0.22 0.19 0.21 0.23 0.24 0.16 0.17 0.23 0.34 0.28 0.23 0.22 0.30 0.51 0.86 0.90 1.11 1.07 0.85 0.78 0.73
0.07 0.06 0.05 0.06 0.04 0.03 0.02 0.04 0.07 0.06 0.12 0.30 0.41 0.29 0.52 0.42 0.34 0.38 0.26 0.27 0.33 0.46 0.52 0.56 0.55 0.70 0.89 0.65 0.63 0.90 0.85 0.63
0.14 0.12 0.12 0.12 0.12 0.11 0.11 0.11 0.15 0.19 0.20 0.29 0.52 0.68 0.76 0.74 0.66 1.05 1.01 0.63 0.50 0.54 0.89 1.09 1.00 1.12 0.99 1.22 0.92 0.49 0.81 0.80
0.20 0.33 0.34 0.25 0.21 0.18 0.17 0.20 0.22 0.25 0.31 0.37 0.53 0.73 0.80 0.79 0.82 0.80 1.06 1.08 0.81 0.71 0.83 0.98 1.36 1.18 1.33 1.16 1.24 0.74 0.39 0.60
0.31 0.60 0.71 0.57 0.49 0.40 0.37 0.36 0.35 0.28 0.27 0.34 0.51 0.77 0.71 0.82 0.88 0.80 1.06 1.30 1.10 0.86 0.69 0.92 0.92 1.01 1.11 0.84 0.86 0.81 0.62 0.43
0.32 0.37 0.64 1.06 1.00 0.66 0.49 0.41 0.47 0.47 0.45 0.42 0.50 0.68 0.85 0.83 0.80 0.74 0.50 1.31 1.58 1.47 1.34 1.03 1.45 1.28 1.09 1.00 0.85 0.68 0.82 0.70
0.33 0.37 0.37 0.46 0.80 0.94 0.67 0.50 0.66 0.69 0.58 0.57 0.53 0.62 0.85 0.92 0.94 0.98 0.97 0.88 1.39 1.43 1.62 1.69 1.28 1.57 1.11 0.83 0.80 0.91 0.66 0.91
0.14 0.17 0.27 0.36 0.38 0.65 0.65 0.59 0.95 0.86 0.68 0.67 0.70 0.76 0.72 0.83 0.94 1.16 1.41 1.45 1.38 1.36 1.48 1.47 1.26 0.95 1.15 0.99 0.83 0.66 0.72 0.52
0.03 0.05 0.07 0.17 0.25 0.35 0.34 0.35 0.43 0.64 0.65 0.53 0.48 0.57 0.79 0.62 0.57 0.74 1.13 1.09 1.13 1.34 1.38 1.42 1.54 1.19 0.89 0.95 0.99 0.75 0.73 0.72
0.02 0.03 0.03 0.02 0.04 0.11 0.09 0.16 0.21 0.19 0.27 0.23 0.32 0.27 0.33 0.38 0.43 0.41 0.46 0.63 0.76 0.84 1.04 1.40 1.63 1.77 1.37 0.97 0.86 0.91 0.82 0.72
0.00 0.00 0.01 0.01 0.01 0.01 0.01 0.01 0.02 0.02 0.05 0.08 0.06 0.05 0.06 0.05 0.09 0.12 0.15 0.23 0.35 0.51 0.66 0.76 0.96 1.27 1.51 1.39 1.16 0.95 0.87 0.87
0.00 0.00 0.00 0.00 0.01 0.01 0.00 0.00 0.00 0.00 0.00 0.00 0.02 0.02 0.01 0.01 0.01 0.00 0.00 0.01 0.02 0.06 0.14 0.22 0.31 0.43 0.62 0.85 1.07 1.09 1.09 0.96

GFSFLT1_prec_precacc24_159.txt.gz
Total_Precipitation_Accumulation
0.00 0.00 0.00 0.00 0.00 0.00 0.00 0.00 0.00 0.00 0.02 0.07 0.16 0.18 0.16 0.29 0.29 0.34 0.33 0.31 0.35 0.42 0.33 0.21 0.23 0.49 0.55 0.49 0.24 0.20 0.16 0.14
0.00 0.00 0.00 0.00 0.00 0.00 0.00 0.00 0.00 0.00 0.02 0.07 0.09 0.08 0.12 0.23 0.15 0.20 0.33 0.47 0.61 0.61 0.43 0.42 0.34 0.34 0.47 0.84 0.92 0.93 0.65 0.33
0.00 0.00 0.00 0.00 0.00 0.00 0.00 0.00 0.00 0.00 0.00 0.02 0.06 0.11 0.18 0.22 0.18 0.25 0.23 0.37 0.45 0.48 0.45 0.50 0.55 0.60 0.48 0.41 0.52 0.48 0.44 0.37
0.00 0.00 0.00 0.00 0.00 0.00 0.00 0.00 0.00 0.00 0.00 0.01 0.12 0.22 0.31 0.35 0.25 0.19 0.18 0.33 0.45 0.41 0.34 0.39 0.53 0.93 1.12 0.78 0.67 0.70 0.60 0.48
0.00 0.00 0.00 0.00 0.00 0.00 0.00 0.00 0.00 0.00 0.00 0.00 0.08 0.11 0.11 0.08 0.07 0.05 0.05 0.15 0.31 0.37 0.47 0.56 0.59 0.55 0.79 1.08 0.89 0.76 0.79 0.77
0.00 0.00 0.00 0.00 0.00 0.00 0.00 0.00 0.00 0.00 0.00 0.00 0.04 0.12 0.12 0.15 0.23 0.28 0.32 0.28 0.29 0.26 0.42 0.68 0.79 1.02 0.87 1.02 1.20 1.29 1.04 0.83
0.00 0.00 0.00 0.00 0.00 0.00 0.00 0.00 0.00 0.00 0.00 0.00 0.02 0.09 0.16 0.22 0.22 0.25 0.32 0.38 0.33 0.25 0.22 0.46 0.90 1.06 1.21 1.04 0.97 1.33 1.59 1.41
0.00 0.00 0.00 0.00 0.00 0.00 0.00 0.00 0.00 0.00 0.00 0.00 0.03 0.09 0.17 0.23 0.16 0.16 0.22 0.30 0.26 0.22 0.22 0.30 0.50 0.80 0.69 0.90 0.96 0.78 0.75 0.72
0.00 0.01 0.01 0.00 0.00 0.01 0.01 0.00 0.01 0.00 0.00 0.00 0.10 0.13 0.19 0.23 0.25 0.23 0.19 0.19 0.31 0.44 0.51 0.55 0.53 0.68 0.87 0.64 0.62 0.90 0.85 0.63
0.01 0.01 0.02 0.03 0.04 0.05 0.07 0.07 0.06 0.08 0.05 0.02 0.19 0.31 0.29 0.41 0.42 0.72 0.75 0.48 0.44 0.51 0.87 1.06 0.98 1.11 0.99 1.22 0.92 0.50 0.81 0.80
0.01 0.05 0.09 0.12 0.10 0.10 0.09 0.10 0.11 0.13 0.16 0.17 0.27 0.44 0.45 0.41 0.57 0.63 0.94 1.00 0.74 0.67 0.81 0.96 1.35 1.17 1.31 1.15 1.24 0.74 0.39 0.60
0.03 0.07 0.15 0.23 0.26 0.23 0.24 0.23 0.21 0.17 0.17 0.21 0.30 0.58 0.55 0.67 0.73 0.62 0.94 1.25 1.08 0.84 0.68 0.90 0.91 1.01 1.11 0.84 0.86 0.80 0.62 0.43
0.05 0.10 0.20 0.36 0.57 0.50 0.41 0.35 0.35 0.41 0.39 0.34 0.38 0.53 0.75 0.78 0.77 0.73 0.46 1.28 1.56 1.46 1.34 1.03 1.45 1.28 1.09 1.01 0.85 0.68 0.82 0.70
0.03 0.08 0.13 0.22 0.41 0.73 0.61 0.43 0.45 0.62 0.54 0.49 0.48 0.55 0.80 0.85 0.91 0.96 0.97 0.88 1.39 1.43 1.63 1.70 1.29 1.57 1.12 0.83 0.80 0.91 0.66 0.91
0.01 0.02 0.05 0.11 0.18 0.44 0.49 0.55 0.75 0.73 0.63 0.64 0.65 0.75 0.72 0.82 0.93 1.15 1.41 1.45 1.38 1.36 1.48 1.47 1.27 0.95 1.15 1.00 0.83 0.66 0.72 0.52
0.00 0.00 0.00 0.01 0.03 0.14 0.17 0.25 0.37 0.56 0.59 0.50 0.47 0.57 0.79 0.62 0.57 0.74 1.13 1.09 1.13 1.34 1.38 1.42 1.54 1.20 0.89 0.96 0.99 0.75 0.73 0.73
0.00 0.00 0.00 0.00 0.00 0.01 0.01 0.04 0.07 0.11 0.18 0.18 0.31 0.27 0.32 0.38 0.43 0.41 0.46 0.63 0.76 0.84 1.04 1.40 1.64 1.77 1.37 0.97 0.86 0.91 0.83 0.72
0.00 0.00 0.00 0.00 0.00 0.01 0.00 0.00 0.00 0.01 0.03 0.05 0.05 0.04 0.06 0.05 0.09 0.12 0.15 0.23 0.35 0.51 0.66 0.76 0.96 1.27 1.51 1.39 1.16 0.96 0.88 0.87
0.00 0.00 0.00 0.00 0.00 0.00 0.00 0.00 0.00 0.00 0.00 0.00 0.02 0.02 0.01 0.01 0.01 0.00 0.00 0.01 0.02 0.06 0.14 0.22 0.31 0.43 0.62 0.85 1.06 1.09 1.09 0.96

GFSFLT1_prec_precacc24_162.txt.gz
Total_Precipitation_Accumulation
0.00 0.00 0.00 0.00 0.00 0.00 0.00 0.00 0.00 0.00 0.00 0.01 0.09 0.15 0.15 0.27 0.29 0.34 0.33 0.31 0.35 0.39 0.32 0.19 0.20 0.47 0.54 0.49 0.24 0.20 0.16 0.14
0.00 0.00 0.00 0.00 0.00 0.00 0.00 0.00 0.00 0.00 0.00 0.00 0.01 0.03 0.05 0.17 0.15 0.20 0.33 0.47 0.61 0.60 0.42 0.39 0.33 0.33 0.46 0.84 0.90 0.90 0.65 0.33
0.00 0.00 0.00 0.00 0.00 0.00 0.00 0.00 0.00 0.00 0.00 0.00 0.00 0.01 0.06 0.16 0.15 0.25 0.23 0.37 0.45 0.48 0.45 0.49 0.55 0.60 0.47 0.40 0.52 0.48 0.42 0.36
0.00 0.00 0.00 0.00 0.00 0.00 0.00 0.00 0.00 0.00 0.00 0.00 0.00 0.00 0.05 0.14 0.15 0.19 0.18 0.33 0.45 0.41 0.34 0.39 0.53 0.93 1.12 0.76 0.67 0.71 0.59 0.47
0.00 0.00 0.00 0.00 0.00 0.00 0.00 0.00 0.00 0.00 0.00 0.00 0.00 0.00 0.02 0.04 0.03 0.03 0.05 0.15 0.31 0.37 0.47 0.56 0.58 0.55 0.79 1.06 0.89 0.76 0.78 0.76
0.00 0.00 0.00 0.00 0.00 0.00 0.00 0.00 0.00 0.00 0.00 0.00 0.00 0.00 0.01 0.04 0.10 0.16 0.31 0.28 0.29 0.26 0.42 0.68 0.79 1.01 0.86 1.02 1.20 1.29 1.02 0.79
0.00 0.00 0.00 0.00 0.00 0.00 0.00 0.00 0.00 0.00 0.00 0.00 0.00 0.01 0.01 0.02 0.07 0.13 0.26 0.38 0.33 0.25 0.22 0.45 0.90 1.06 1.21 1.04 0.97 1.33 1.58 1.38
0.00 0.00 0.00 0.00 0.00 0.00 0.00 0.00 0.00 0.00 0.00 0.00 0.00 0.01 0.01 0.01 0.02 0.09 0.18 0.29 0.26 0.22 0.22 0.30 0.50 0.80 0.69 0.90 0.95 0.78 0.75 0.71
0.00 0.00 0.00 0.00 0.00 0.00 0.00 0.00 0.00 0.00 0.00 0.00 0.00 0.00 0.01 0.01 0.04 0.16 0.17 0.19 0.31 0.44 0.51 0.54 0.52 0.68 0.85 0.61 0.60 0.89 0.85 0.63
0.00 0.00 0.01 0.02 0.02 0.01 0.02 0.02 0.01 0.00 0.00 0.00 0.00 0.00 0.00 0.01 0.02 0.31 0.47 0.30 0.37 0.50 0.86 1.05 0.97 1.09 0.91 1.18 0.91 0.49 0.81 0.80
0.00 0.00 0.01 0.02 0.04 0.03 0.02 0.02 0.02 0.02 0.02 0.13 0.08 0.02 0.01 0.01 0.02 0.19 0.53 0.79 0.59 0.59 0.77 0.88 1.13 1.06 1.27 1.15 1.24 0.74 0.38 0.60
0.00 0.01 0.01 0.01 0.01 0.02 0.03 0.05 0.07 0.08 0.08 0.14 0.18 0.13 0.08 0.05 0.07 0.16 0.45 0.96 0.91 0.76 0.62 0.82 0.71 0.61 0.86 0.78 0.84 0.79 0.62 0.43
0.00 0.00 0.00 0.00 0.02 0.06 0.10 0.12 0.14 0.23 0.29 0.24 0.24 0.30 0.26 0.19 0.19 0.31 0.25 0.98 1.29 1.27 1.15 0.91 1.37 1.24 1.03 0.97 0.83 0.67 0.81 0.69
0.00 0.00 0.00 0.01 0.02 0.09 0.16 0.16 0.22 0.36 0.44 0.39 0.33 0.28 0.26 0.28 0.38 0.53 0.54 0.59 1.29 1.35 1.47 1.48 1.10 1.50 1.09 0.82 0.80 0.91 0.66 0.92
0.00 0.00 0.00 0.00 0.01 0.06 0.11 0.18 0.29 0.33 0.47 0.52 0.52 0.51 0.38 0.40 0.67 0.83 0.94 0.84 1.08 1.32 1.46 1.44 1.24 0.94 1.15 0.99 0.83 0.66 0.73 0.53
0.01 0.01 0.01 0.00 0.00 0.00 0.01 0.07 0.13 0.15 0.34 0.31 0.29 0.43 0.62 0.43 0.42 0.64 0.93 0.89 0.86 1.16 1.34 1.41 1.54 1.20 0.90 0.96 1.00 0.75 0.74 0.73
0.07 0.02 0.00 0.00 0.00 0.00 0.00 0.00 0.01 0.03 0.03 0.07 0.12 0.13 0.27 0.33 0.38 0.34 0.36 0.53 0.70 0.80 1.03 1.40 1.64 1.77 1.37 0.97 0.86 0.92 0.83 0.72
0.02 0.00 0.00 0.00 0.00 0.00 0.00 0.00 0.00 0.00 0.01 0.01 0.02 0.03 0.05 0.04 0.07 0.10 0.13 0.20 0.33 0.50 0.66 0.76 0.96 1.27 1.51 1.39 1.16 0.96 0.88 0.87
0.00 0.00 0.00 0.00 0.00 0.00 0.00 0.00 0.00 0.00 0.00 0.00 0.00 0.01 0.00 0.00 0.00 0.00 0.00 0.01 0.02 0.06 0.13 0.22 0.31 0.43 0.62 0.85 1.06 1.09 1.09 0.96